Location: Boca de Tacagua
(10.5333°N, 66.9833°W)
Time: 18:18:10
(UTC+00:00)

XW-2D - Pass Details

Date: 10 April 2023
Orbit: 475 x 489 km, 97.5° (Epoch: 01 June)

Event Time Altitude Azimuth Distance (km) Brightness Sun altitude
Rises 09:34:42 0° 43° (NE) 2,563 ? -11.8°
Reaches altitude 10° 09:37:51 10° 74° (ENE) 1,686 ? -11.1°
Maximum altitude 09:39:24 12° 99° (E) 1,544 ? -10.7°
Drops below altitude 10° 09:40:57 10° 125° (SE) 1,689 ? -10.3°
Sets 09:44:06 0° 155° (SSE) 2,573 ? -9.5°
